Вернуться в каталог

COSMOS 1257

АктивенНавигацияLEO
NORAD 12327·PAYLOAD·🇷🇺 Russia

Запущен Mar 6, 1981 с Plesetsk Cosmodrome

Loading…

Ближайшие Пролёты (ближайшие 24 часа)

TLE

СвежийSource: Space-Track

Эпоха: Sep 14, 2026, 14:37 UTC

1 12327U 81022H   26257.60950507 -.00000007  00000-0  62373-4 0  9995
2 12327  74.0290 300.9653 0006582 168.7941 359.8779 12.47858730 73825

Отслеживайте COSMOS 1257 в реальном времени с AllMySat

Download on the App Store